カタログに戻る

DELTA 1 DEB

運用中LEO
NORAD 10876·DEBRIS·🇺🇸 United States

打ち上げ Jul 29, 1976 から Vandenberg Space Force Base

Loading…

次のパス (今後24時間)

TLE

最新Source: Space-Track

元期: Sep 14, 2026, 00:46 UTC

1 10876U 76077DE  26257.03216579  .00000008  00000-0  37232-3 0  9992
2 10876 102.6059 285.4188 0101338 107.6198 281.0855 12.48809227282184

AllMySatでDELTA 1 DEBをリアルタイム追跡

Download on the App Store